Regional Weather Roundup
Issued by NWS Austin/San Antonio, TX

Home | Current Version | Previous Version | Text Only | Print | Product List | Glossary On
Versions: 1 2 3 4 5 6 7 8 9 10 11 12 13 14 15 16 17 18 19 20 21 22 23 24 25 26 27 28 29 30 31 32 33 34 35 36 37 38 39 40 41 42 43 44 45 46 47 48 49 50
000
ASUS44 KEWX 191810
RWREWX
SOUTH TEXAS REGIONAL WEATHER ROUNDUP
NATIONAL WEATHER SERVICE AUSTIN/SAN ANTONIO TX
1200 PM CST SUN NOV 19 2017

NOTE: "FAIR" INDICATED FEW OR NO CLOUDS BELOW 12,000 FEET WITH NO
SIGNIFICANT WEATHER AND/OR OBSTRUCTIONS TO VISIBILITY.

* - THESE STATIONS ARE NOT NWS OR FAA STATIONS...AND ARE NOT SUBJECT
    TO NWS AND FAA QUALITY CONTROL.

TXZ171-172-183>190-191900-
TEXAS HILL COUNTRY AND EDWARDS PLATEAU

CITY           SKY/WX    TMP DP  RH WIND       PRES   REMARKS
JUNCTION       MOSUNNY   56  23  27 E9        30.36F
6HR MIN TEMP:  31; 6HR MAX TEMP:  56;

*LLANO         MOSUNNY   61  28  29 E3        30.40F
BURNET         MOSUNNY   59  26  28 E10       30.38F
6HR MIN TEMP:  38; 6HR MAX TEMP:  60;

*HORSESHOE BAY MOSUNNY   60  31  33 NW3       30.36F
6HR MIN TEMP:  34; 6HR MAX TEMP:  60;

*KERRVILLE     SUNNY     57  27  32 E5        30.37F
6HR MIN TEMP:  31; 6HR MAX TEMP:  57;

*FREDERICKSBRG MOSUNNY   55  22  27 E7        30.37F
6HR MIN TEMP:  32; 6HR MAX TEMP:  56;

*ROCKSPRINGS   NOT AVBL
*BOERNE STAGE  SUNNY     57  27  30 NE9       30.37F
*CASTROVILLE   SUNNY     63  25  23 E10       30.37F
HONDO          SUNNY     66  27  23 NE10G16   30.36F
6HR MIN TEMP:  37; 6HR MAX TEMP:  66;

*UVALDE        SUNNY     60  25  26 NE7       30.37F
6HR MIN TEMP:  38; 6HR MAX TEMP:  61;

DEL RIO        MOSUNNY   58  25  28 SE7       30.36F
6HR MIN TEMP:  35; 6HR MAX TEMP:  60;

LAUGHLIN AFB   PTSUNNY   59  25  27 SE8       30.36F
6HR MIN TEMP:  35; 6HR MAX TEMP:  60;

CARRIZO SPRGS  SUNNY     61  30  31 E7        30.38F
*EAGLE PASS    CLEAR     61  23  23 CALM      30.37F
$$

TXZ173-191>194-202-209-217>225-228-191900-
CENTRAL AND SOUTH CENTRAL TEXAS

CITY           SKY/WX    TMP DP  RH WIND       PRES   REMARKS
GEORGETOWN     MOSUNNY   61  28  28 N8        30.37F
6HR MIN TEMP:  40; 6HR MAX TEMP:  61;

AUSTIN/BERGSTM PTSUNNY   61  30  31 NE9G21    30.35F
6HR MIN TEMP:  44; 6HR MAX TEMP:  62;

AUSTIN/MABRY   MOSUNNY   62  32  32 VRB7      30.37F
6HR MIN TEMP:  45; 6HR MAX TEMP:  62;

*AUSTIN/EXEC   MOSUNNY   59  28  31 NE9G16    30.36F
*LAGO VISTA    SUNNY     61  28  28 E7        30.36F
6HR MIN TEMP:  45; 6HR MAX TEMP:  61;

SAN MARCOS     MOSUNNY   64  29  26 NE15G21   30.36F
6HR MIN TEMP:  42; 6HR MAX TEMP:  64;

NEW BRAUNFELS  SUNNY     64  28  25 N13       30.35F
6HR MIN TEMP:  43; 6HR MAX TEMP:  64;

RANDOLPH AFB   SUNNY     62  27  27 N12       30.35F
6HR MIN TEMP:  40; 6HR MAX TEMP:  62;

PT SAN ANTONIO SUNNY     63  26  25 E10       30.34F
6HR MIN TEMP:  42; 6HR MAX TEMP:  63;

SAN ANTONIO    PTSUNNY   61  27  27 NE12G20   30.36F
6HR MIN TEMP:  43; 6HR MAX TEMP:  62;

STINSON FIELD  SUNNY     64  28  25 N10       30.34F
6HR MIN TEMP:  47; 6HR MAX TEMP:  65;

*LA GRANGE     SUNNY     62  33  33 NE7       30.32F
6HR MIN TEMP:  43; 6HR MAX TEMP:  63;

*GIDDINGS      SUNNY     60  30  33 NE5       30.36F
6HR MIN TEMP:  43; 6HR MAX TEMP:  60;

*GONZALES      SUNNY     63  33  32 NE10G16   30.34F
6HR MIN TEMP:  42; 6HR MAX TEMP:  64;

$$

TXZ163>164-176>182-195>201-210>213-226-227-235-191900-
SOUTHEAST TEXAS

CITY           SKY/WX    TMP DP  RH WIND       PRES   REMARKS
COLLEGE STN    SUNNY     63  30  28 N15G21    30.33F
6HR MIN TEMP:  41; 6HR MAX TEMP:  64;

*BRYAN         SUNNY     61  31  32 N10G18    30.34F
6HR MIN TEMP:  41; 6HR MAX TEMP:  62;

*CALDWELL      SUNNY     61  34  37 N7        30.34F
6HR MIN TEMP:  41; 6HR MAX TEMP:  61;

*CROCKETT        N/A    N/A N/A N/A MISG        N/A
*BRENHAM       SUNNY     62  31  31 NE7       30.34F
6HR MIN TEMP:  42; 6HR MAX TEMP:  63;

HUNTSVILLE     SUNNY     61  30  31 VRB7      30.32F
6HR MIN TEMP:  39; 6HR MAX TEMP:  62;

CONROE         SUNNY     63  29  27 N10G20    30.31F
6HR MIN TEMP:  43; 6HR MAX TEMP:  63;

HOUSTON BUSH   MOSUNNY   63  33  32 NE14G22   30.31F
6HR MIN TEMP:  47; 6HR MAX TEMP:  64;

HOUSTON HOBBY  MOSUNNY   63  32  31 N13G21    30.29F
6HR MIN TEMP:  49; 6HR MAX TEMP:  63;

*HOUSTON SW AP SUNNY     62  32  33 NE10      30.31F
6HR MIN TEMP:  47; 6HR MAX TEMP:  62;

PEARLAND       SUNNY     64  30  27 N13       30.31F
6HR MIN TEMP:  54; 6HR MAX TEMP:  64;

HOUSTON HOOKS  SUNNY     62  34  35 N9        30.31F
6HR MIN TEMP:  47; 6HR MAX TEMP:  63;

ELLINGTON FLD  MOSUNNY   63  34  34 N8        30.32F
SUGAR LAND     SUNNY     64  29  26 N16       30.30F
6HR MIN TEMP:  46; 6HR MAX TEMP:  65;

*HOUSTON EXEC  SUNNY     63  30  29 NE14      30.33F
*CLEVELAND MUN SUNNY     62  28  28 NE8       30.31F HAZE
6HR MIN TEMP:  46; 6HR MAX TEMP:  62;

*WHARTON       SUNNY     63  27  26 N10       30.33F
6HR MIN TEMP:  42; 6HR MAX TEMP:  63;

*COLUMBUS      FAIR      62  27  26 N12       30.33F
6HR MIN TEMP:  44; 6HR MAX TEMP:  63;

*EAGLE LAKE    CLEAR     64  31  28 N17G23    30.32F
6HR MIN TEMP:  44; 6HR MAX TEMP:  64;

$$

TXZ214>216-236>238-191900-
THE UPPER TEXAS COAST

CITY           SKY/WX    TMP DP  RH WIND       PRES   REMARKS
*ORANGE        SUNNY     61  31  32 N12G20    30.29F
6HR MIN TEMP:  44; 6HR MAX TEMP:  61;

PORT ARTHUR    SUNNY     63  32  31 N16       30.27F
6HR MIN TEMP:  47; 6HR MAX TEMP:  63;

GALVESTON      SUNNY     63  36  36 N17G24    30.31F
6HR MIN TEMP:  54; 6HR MAX TEMP:  63;

ANGLETON       SUNNY     63  28  26 NE14G24   30.30F
6HR MIN TEMP:  43; 6HR MAX TEMP:  64;

*BAY CITY      SUNNY     64  30  28 NE10G21   30.31F
PALACIOS       SUNNY     64  32  30 N16G24    30.31F
6HR MIN TEMP:  45; 6HR MAX TEMP:  64;

$$

TXZ229>234-239>247-191900-
TEXAS COASTAL BEND AND RIO GRANDE PLAINS

CITY           SKY/WX    TMP DP  RH WIND       PRES   REMARKS
VICTORIA       SUNNY     64  29  26 N13G22    30.34F
6HR MIN TEMP:  44; 6HR MAX TEMP:  65;

*BEEVILLE      SUNNY     64  31  28 NE8       30.35F
6HR MIN TEMP:  47; 6HR MAX TEMP:  64;

ROCKPORT       SUNNY     64  32  30 NE17G26   30.33F
6HR MIN TEMP:  51; 6HR MAX TEMP:  64;

*PORT ARANSAS  NOT AVBL
*PORT LAVACA   NOT AVBL
*INGLESIDE     NOT AVBL
CORPUS CHRISTI MOSUNNY   64  32  30 NE17G24   30.34F
6HR MIN TEMP:  51; 6HR MAX TEMP:  64;

CORPUS NAS     SUNNY     66  38  35 NE20G36   30.33F
6HR MIN TEMP:  56; 6HR MAX TEMP:  66;

*ROBSTOWN      SUNNY     62  33  33 NE8       30.35F
6HR MIN TEMP:  50; 6HR MAX TEMP:  63;

ALICE          SUNNY     64  29  26 NE13G20   30.34F
6HR MIN TEMP:  50; 6HR MAX TEMP:  65;

KINGSVILLE NAS SUNNY     66  34  30 NE17      30.34F
6HR MIN TEMP:  51; 6HR MAX TEMP:  67;

COTULLA        SUNNY     63  22  20 VRB3      30.36F
6HR MIN TEMP:  45; 6HR MAX TEMP:  64;

*FAITH RANCH   SUNNY     61  28  29 VRB3      30.37F
LAREDO         SUNNY     62  30  29 VRB5G17   30.37F
6HR MIN TEMP:  50; 6HR MAX TEMP:  63;

$$

TXZ248>255-191900-
DEEP SOUTH TEXAS

CITY           SKY/WX    TMP DP  RH WIND       PRES   REMARKS
BROWNSVILLE    CLOUDY    69  51  52 N17G25    30.29F
6HR MIN TEMP:  58; 6HR MAX TEMP:  70;

PORT ISABEL    MOSUNNY   68  51  54 N20G29    30.28F
6HR MIN TEMP:  56; 6HR MAX TEMP:  69;

*SOUTH P



USA.gov is the U.S. government's official web portal to all federal, state and local government web resources and services.